Location: Rancho Del Sol Observatory
(38.7214°N, 120.6350°W)
Time: 23:35:21
(UTC-08:00)

Cosmos 2221 Rocket - Visible Passes

Search period start: 20 February 2018 00:00
Search period end: 02 March 2018 00:00
Orbit: 620 x 649 km, 82.5° (Epoch: 20 February)

Date Brightness Start Highest point End Pass type
(mag) Time Alt. Az. Time Alt. Az. Time Alt. Az.
20 Feb 5.2 18:25:10 10° NNW 18:29:17 40° W 18:33:24 10° SSW visible
21 Feb 7.2 05:22:30 10° ESE 05:23:54 11° E 05:25:19 10° ENE visible
21 Feb 6.7 18:48:10 10° NW 18:51:15 19° W 18:54:21 10° SW visible
22 Feb 6.3 05:42:13 10° SE 05:45:48 24° E 05:49:22 10° NE visible
23 Feb 4.6 06:03:29 10° S 06:07:49 52° E 06:12:08 10° NNE visible
24 Feb 6.5 18:16:16 10° NW 18:19:46 23° W 18:23:18 10° SW visible
25 Feb 6.5 05:11:08 10° SE 05:14:19 19° E 05:17:29 10° NE visible
25 Feb 7.3 18:40:29 10° WNW 18:41:39 11° W 18:42:50 10° W visible
26 Feb 5.1 05:32:07 10° SSE 05:36:17 41° E 05:40:27 10° NNE visible
27 Feb 3.6 05:53:57 10° S 05:58:24 89° WNW 06:02:51 10° N visible
28 Feb 6.7 04:40:13 10° ESE 04:42:50 16° E 04:45:28 10° NE visible
01 Mar 5.4 05:00:50 10° SSE 05:04:47 32° E 05:08:44 10° NNE visible
